Regional Weather Roundup
Issued by NWS

Home | Current Version | Previous Version | Graphics & Text | Print | Product List | Glossary On
Versions: 1 2 3 4 5 6 7 8 9 10 11 12 13 14 15 16 17 18 19 20 21 22 23 24 25 26 27 28 29 30 31 32 33 34 35 36 37 38 39 40 41 42 43 44 45 46 47 48 49 50
000
ASUS43 KTOP 300059
RWRKS

WEATHER ROUNDUP FOR KANSAS
NATIONAL WEATHER SERVICE GOODLAND KS
800 PM CDT TUE JUL 29 2014

NOTE:  "FAIR" INDICATES FEW OR NO CLOUDS BELOW 12,000 FEET WITH NO
SIGNIFICANT WEATHER AND/OR OBSTRUCTIONS TO VISIBILITY.

KSZ001>006-013>018-027>032-041>047-300200-
NORTHWEST KANSAS

CITY           SKY/WX    TMP DP  RH WIND       PRES   REMARKS
GOODLAND       CLOUDY    78  60  53 SE14      30.10S
HAYS           MOCLDY    84  59  42 E10G16    30.06S
HILL CITY      MOCLDY    81  57  43 E16G22    30.07S
RUSSELL        MOCLDY    79  58  48 E16       30.06R
$$

KSZ061>065-074>080-084>089-300200-
SOUTHWEST KANSAS

CITY           SKY/WX    TMP DP  RH WIND       PRES   REMARKS
DODGE CITY     PTCLDY    73  60  63 S13       30.10F
ELKHART          N/A     75  62  64 S9          N/A
GARDEN CITY    CLOUDY    74  63  68 S9        30.09S
GREAT BEND     MOCLDY    81  63  54 S12       30.05S
LIBERAL        MOCLDY    75  63  64 SE12      30.09S
PRATT          CLEAR     75  52  43 SW8       30.09S
$$

KSZ066>073-081>083-090>101-300200-
SOUTHEAST KANSAS

CITY           SKY/WX    TMP DP  RH WIND       PRES   REMARKS
CHANUTE        PTCLDY    72  62  71 CALM      30.09S
COFFEYVILLE    PTCLDY    76  62  62 NE6       30.07F
HUTCHINSON     PTCLDY    83  62  49 E7        30.05R
NEWTON         PTCLDY    79  57  47 E9        30.11R
PARSONS        PTCLDY    75  62  64 CALM      30.09F
WICHITA INTL   MOCLDY    84  61  45 E15       30.04S
WICHITA JABRA  PTCLDY    81  64  56 E8        30.05S
WINFIELD       MOCLDY    85  63  47 SE9       30.04F
$$

KSZ007>012-019>026-033>040-048>060-102>105-300200-
NORTHEAST KANSAS

CITY           SKY/WX    TMP DP  RH WIND       PRES   REMARKS
CONCORDIA      MOCLDY    77  59  53 E6        30.10R
EMPORIA        PTCLDY    74  58  57 SE5       30.08F
LAWRENCE       PTCLDY    76  62  62 NE6       30.08F
MANHATTAN      MOCLDY    80  57  45 NE8       30.07F
OLATHE IND     CLEAR     77  58  51 N7        30.10S
OLATHE EXE     MOCLDY    77  57  50 NE5       30.08F
SALINA         PTCLDY    81  59  47 E13       30.07R
TOPEKA BILLARD MOCLDY    79  59  50 NE6       30.08F
TOPEKA FORBES  MOCLDY    78  58  49 E5        30.08F
$$


USA.gov is the U.S. government's official web portal to all federal, state and local government web resources and services.